Location: Chiroubles
(46.1812°N, 4.6660°E)
Time: 16:11:07
(UTC+00:00)

Transit 4A - Pass Details

Date: 30 November 2020
Orbit: 864 x 980 km, 66.8° (Epoch: 26 January)

Event Time Altitude Azimuth Distance (km) Brightness Sun altitude
Rises 07:58:33 0° 223° (SW) 3,625 11.0 6.9°
Reaches altitude 10° 08:01:06 10° 227° (SW) 2,695 10.3 7.3°
Maximum altitude 08:07:21 62° 307° (NW) 1,091 8.2 8.1°
Drops below altitude 10° 08:13:44 10° 29° (NNE) 2,741 10.2 8.9°
Sets 08:16:22 0° 33° (NNE) 3,691 10.9 9.2°
